Time,TemperatureF,DewpointF,PressureIn,WindDirection,WindDirectionDegrees,WindSpeedMPH,WindSpeedGustMPH,Humidity,HourlyPrecipIn,Conditions,Clouds,dailyrainin,SoftwareType,DateUTC
2013-07-22 00:00:00,72.3,56.7,30.09,SW,225,0.0,0.0,58,0.00,CLR,,0.00,WeatherDisplay:10.37,2013-07-22 07:00:00,
2013-07-22 00:05:00,72.3,56.7,30.10,SW,225,0.0,0.0,58,0.00,CLR,,0.00,WeatherDisplay:10.37,2013-07-22 07:05:00,
2013-07-22 00:10:00,72.1,56.5,30.09,SW,225,0.0,0.0,58,0.00,CLR,,0.00,WeatherDisplay:10.37,2013-07-22 07:10:00,
2013-07-22 00:15:00,72.1,57.0,30.09,SW,225,0.0,0.0,59,0.00,CLR,,0.00,WeatherDisplay:10.37,2013-07-22 07:15:00,
2013-07-22 00:20:00,72.0,56.8,30.10,SW,225,0.0,0.0,59,0.00,CLR,,0.00,WeatherDisplay:10.37,2013-07-22 07:20:00,
2013-07-22 00:30:00,71.8,56.7,30.09,SW,225,0.0,0.0,59,0.00,CLR,,0.00,WeatherDisplay:10.37,2013-07-22 07:30:00,
2013-07-22 00:40:00,71.4,56.8,30.10,SW,225,0.0,0.0,60,0.00,CLR,,0.00,WeatherDisplay:10.37,2013-07-22 07:40:00,
2013-07-22 00:45:00,71.2,57.1,30.09,SW,225,0.0,0.0,61,0.00,CLR,,0.00,WeatherDisplay:10.37,2013-07-22 07:45:00,
2013-07-22 00:50:00,71.1,56.9,30.09,SW,225,0.0,0.0,61,0.00,CLR,,0.00,WeatherDisplay:10.37,2013-07-22 07:50:00,
2013-07-22 01:00:00,70.6,56.9,30.09,SW,225,0.0,0.0,62,0.00,CLR,,0.00,WeatherDisplay:10.37,2013-07-22 08:00:00,
2013-07-22 01:05:00,70.5,57.3,30.09,SW,225,0.0,0.0,63,0.00,CLR,,0.00,WeatherDisplay:10.37,2013-07-22 08:05:00,
2013-07-22 01:10:00,70.2,57.4,30.09,SW,225,0.0,0.0,64,0.00,CLR,,0.00,WeatherDisplay:10.37,2013-07-22 08:10:00,
2013-07-22 01:20:00,69.6,57.3,30.09,SW,225,0.0,0.0,65,0.00,CLR,,0.00,WeatherDisplay:10.37,2013-07-22 08:20:00,
2013-07-22 01:30:00,69.5,57.3,30.09,SW,225,0.0,0.0,65,0.00,CLR,,0.00,WeatherDisplay:10.37,2013-07-22 08:30:00,
2013-07-22 01:40:00,69.1,56.8,30.08,SW,225,0.0,0.0,65,0.00,CLR,,0.00,WeatherDisplay:10.37,2013-07-22 08:40:00,
2013-07-22 01:45:00,69.1,57.2,30.08,SW,225,0.0,0.0,66,0.00,CLR,,0.00,WeatherDisplay:10.37,2013-07-22 08:45:00,
2013-07-22 01:50:00,68.9,57.1,30.08,SW,225,0.0,0.0,66,0.00,CLR,,0.00,WeatherDisplay:10.37,2013-07-22 08:50:00,
2013-07-22 02:00:00,68.7,57.3,30.08,SW,225,0.0,0.0,67,0.00,CLR,,0.00,WeatherDisplay:10.37,2013-07-22 09:00:00,
2013-07-22 02:05:00,68.5,57.1,30.08,SW,225,0.0,0.0,67,0.00,CLR,,0.00,WeatherDisplay:10.37,2013-07-22 09:05:00,
2013-07-22 02:10:00,68.4,57.4,30.08,SW,225,0.0,0.0,68,0.00,CLR,,0.00,WeatherDisplay:10.37,2013-07-22 09:10:00,
2013-07-22 02:20:00,68.2,57.2,30.08,SW,225,0.0,0.0,68,0.00,CLR,,0.00,WeatherDisplay:10.37,2013-07-22 09:20:00,
2013-07-22 02:30:00,68.2,57.6,30.08,SW,225,0.0,0.0,69,0.00,CLR,,0.00,WeatherDisplay:10.37,2013-07-22 09:30:00,
2013-07-22 02:40:00,68.4,57.8,30.08,SW,225,0.0,0.0,69,0.00,CLR,,0.00,WeatherDisplay:10.37,2013-07-22 09:40:00,
2013-07-22 02:45:00,68.4,57.8,30.07,SW,225,0.0,0.0,69,0.00,CLR,,0.00,WeatherDisplay:10.37,2013-07-22 09:45:00,
2013-07-22 02:50:00,68.4,57.8,30.08,SW,225,0.0,0.0,69,0.00,CLR,,0.00,WeatherDisplay:10.37,2013-07-22 09:50:00,
2013-07-22 03:00:00,68.5,57.6,30.08,SW,225,0.0,0.0,68,0.00,CLR,,0.00,WeatherDisplay:10.37,2013-07-22 10:00:00,
2013-07-22 03:05:00,68.5,57.6,30.08,SW,225,0.0,0.0,68,0.00,CLR,,0.00,WeatherDisplay:10.37,2013-07-22 10:05:00,
2013-07-22 03:10:00,68.5,57.6,30.08,SW,225,0.0,0.0,68,0.00,CLR,,0.00,WeatherDisplay:10.37,2013-07-22 10:10:00,
2013-07-22 03:20:00,68.7,57.7,30.08,SW,225,0.0,0.0,68,0.00,CLR,,0.00,WeatherDisplay:10.37,2013-07-22 10:20:00,
2013-07-22 03:30:00,68.7,58.1,30.07,SW,225,0.0,0.0,69,0.00,CLR,,0.00,WeatherDisplay:10.37,2013-07-22 10:30:00,
2013-07-22 03:40:00,68.7,58.1,30.07,SW,225,0.0,0.0,69,0.00,CLR,,0.00,WeatherDisplay:10.37,2013-07-22 10:40:00,
2013-07-22 03:50:00,68.7,58.1,30.07,SW,225,0.0,0.0,69,0.00,CLR,,0.00,WeatherDisplay:10.37,2013-07-22 10:50:00,
2013-07-22 04:00:00,68.7,58.1,30.07,SW,225,0.0,0.0,69,0.00,CLR,,0.00,WeatherDisplay:10.37,2013-07-22 11:00:00,
2013-07-22 04:05:00,68.5,58.0,30.08,SW,225,0.0,0.0,69,0.00,CLR,,0.00,WeatherDisplay:10.37,2013-07-22 11:05:00,
2013-07-22 04:10:00,68.5,57.9,30.08,SW,225,0.0,0.0,69,0.00,CLR,,0.00,WeatherDisplay:10.37,2013-07-22 11:10:00,
2013-07-22 04:15:00,68.4,57.8,30.08,SW,225,0.0,0.0,69,0.00,CLR,,0.00,WeatherDisplay:10.37,2013-07-22 11:15:00,
2013-07-22 04:20:00,68.2,58.0,30.08,SW,225,0.0,0.0,70,0.00,CLR,,0.00,WeatherDisplay:10.37,2013-07-22 11:20:00,
2013-07-22 04:25:00,68.2,58.0,30.08,SW,225,0.0,0.0,70,0.00,CLR,,0.00,WeatherDisplay:10.37,2013-07-22 11:25:00,
2013-07-22 04:30:00,68.0,58.3,30.08,SW,225,0.0,0.0,71,0.00,CLR,,0.00,WeatherDisplay:10.37,2013-07-22 11:30:00,
2013-07-22 04:40:00,67.8,58.1,30.08,SW,225,0.0,0.0,71,0.00,CLR,,0.00,WeatherDisplay:10.37,2013-07-22 11:40:00,
2013-07-22 04:45:00,67.6,57.9,30.09,SW,225,0.0,0.0,71,0.00,CLR,,0.00,WeatherDisplay:10.37,2013-07-22 11:45:00,
2013-07-22 04:50:00,67.6,58.3,30.09,SW,225,0.0,0.0,72,0.00,CLR,,0.00,WeatherDisplay:10.37,2013-07-22 11:50:00,
2013-07-22 05:00:00,67.3,57.9,30.09,SW,225,0.0,0.0,72,0.00,CLR,,0.00,WeatherDisplay:10.37,2013-07-22 12:00:00,
2013-07-22 05:05:00,67.1,57.8,30.09,SW,225,0.0,0.0,72,0.00,CLR,,0.00,WeatherDisplay:10.37,2013-07-22 12:05:00,
2013-07-22 05:10:00,66.9,57.6,30.09,SW,225,0.0,0.0,72,0.00,CLR,,0.00,WeatherDisplay:10.37,2013-07-22 12:10:00,
2013-07-22 05:20:00,66.9,58.0,30.10,SW,225,0.0,0.0,73,0.00,CLR,,0.00,WeatherDisplay:10.37,2013-07-22 12:20:00,
2013-07-22 05:30:00,66.9,58.0,30.09,SW,225,0.0,0.0,73,0.00,CLR,,0.00,WeatherDisplay:10.37,2013-07-22 12:30:00,
2013-07-22 05:40:00,66.9,58.0,30.10,SW,225,0.0,0.0,73,0.00,CLR,,0.00,WeatherDisplay:10.37,2013-07-22 12:40:00,
2013-07-22 05:45:00,66.9,58.0,30.10,SW,225,0.0,0.0,73,0.00,CLR,,0.00,WeatherDisplay:10.37,2013-07-22 12:45:00,
2013-07-22 05:50:00,66.9,58.0,30.10,SW,225,0.0,0.0,73,0.00,CLR,,0.00,WeatherDisplay:10.37,2013-07-22 12:50:00,
2013-07-22 06:00:00,67.1,58.2,30.10,SW,225,0.0,0.0,73,0.00,CLR,,0.00,WeatherDisplay:10.37,2013-07-22 13:00:00,
2013-07-22 06:05:00,67.1,58.2,30.10,SW,225,0.0,0.0,73,0.00,CLR,,0.00,WeatherDisplay:10.37,2013-07-22 13:05:00,
2013-07-22 06:10:00,67.3,58.3,30.10,SW,225,0.0,0.0,73,0.00,CLR,,0.00,WeatherDisplay:10.37,2013-07-22 13:10:00,
2013-07-22 06:20:00,67.3,57.9,30.10,SW,225,0.0,0.0,72,0.00,CLR,,0.00,WeatherDisplay:10.37,2013-07-22 13:20:00,
2013-07-22 06:25:00,67.5,58.2,30.10,SW,225,0.0,0.0,72,0.00,CLR,,0.00,WeatherDisplay:10.37,2013-07-22 13:25:00,
2013-07-22 06:30:00,67.6,58.7,30.10,SW,225,0.0,0.0,73,0.00,CLR,,0.00,WeatherDisplay:10.37,2013-07-22 13:30:00,
2013-07-22 06:35:00,67.8,58.5,30.10,SW,225,0.0,0.0,72,0.00,CLR,,0.00,WeatherDisplay:10.37,2013-07-22 13:35:00,
2013-07-22 06:40:00,67.9,58.5,30.11,SW,225,0.0,0.0,72,0.00,CLR,,0.00,WeatherDisplay:10.37,2013-07-22 13:40:00,
2013-07-22 06:50:00,68.4,59.0,30.11,SW,225,0.0,0.0,72,0.00,CLR,,0.00,WeatherDisplay:10.37,2013-07-22 13:50:00,
2013-07-22 07:00:00,69.1,58.9,30.11,SW,225,0.0,0.0,70,0.00,CLR,,0.00,WeatherDisplay:10.37,2013-07-22 14:00:00,
2013-07-22 07:05:00,69.4,58.8,30.11,SW,214,0.0,0.0,69,0.00,CLR,,0.00,WeatherDisplay:10.37,2013-07-22 14:05:00,
2013-07-22 07:10:00,69.8,59.2,30.12,SSW,202,0.0,0.0,69,0.00,CLR,,0.00,WeatherDisplay:10.37,2013-07-22 14:10:00,
2013-07-22 07:15:00,70.3,59.3,30.12,South,174,0.0,0.0,68,0.00,CLR,,0.00,WeatherDisplay:10.37,2013-07-22 14:15:00,
2013-07-22 07:20:00,70.7,59.2,30.12,SE,139,0.0,0.0,67,0.00,CLR,,0.00,WeatherDisplay:10.37,2013-07-22 14:20:00,
2013-07-22 07:25:00,71.1,59.6,30.12,SE,135,0.0,0.0,67,0.00,CLR,,0.00,WeatherDisplay:10.37,2013-07-22 14:25:00,
2013-07-22 07:30:00,71.4,59.5,30.12,SE,130,0.0,0.0,66,0.00,CLR,,0.00,WeatherDisplay:10.37,2013-07-22 14:30:00,
2013-07-22 07:35:00,71.8,59.4,30.12,ESE,119,1.0,1.0,65,0.00,CLR,,0.00,WeatherDisplay:10.37,2013-07-22 14:35:00,
2013-07-22 07:40:00,72.1,59.7,30.12,ESE,112,0.0,1.0,65,0.00,CLR,,0.00,WeatherDisplay:10.37,2013-07-22 14:40:00,
2013-07-22 07:45:00,72.3,59.9,30.12,ESE,112,0.0,0.0,65,0.00,CLR,,0.00,WeatherDisplay:10.37,2013-07-22 14:45:00,
2013-07-22 07:50:00,72.3,59.5,30.13,ESE,112,0.0,0.0,64,0.00,CLR,,0.00,WeatherDisplay:10.37,2013-07-22 14:50:00,
2013-07-22 07:55:00,72.4,59.5,30.13,East,98,0.0,3.0,64,0.00,CLR,,0.00,WeatherDisplay:10.37,2013-07-22 14:55:00,
2013-07-22 08:00:00,72.7,59.8,30.13,East,81,0.0,3.0,64,0.00,CLR,,0.00,WeatherDisplay:10.37,2013-07-22 15:00:00,
2013-07-22 08:05:00,72.7,59.8,30.13,ENE,73,0.0,0.0,64,0.00,CLR,,0.00,WeatherDisplay:10.37,2013-07-22 15:05:00,
2013-07-22 08:10:00,72.9,59.5,30.13,ENE,68,5.0,5.0,63,0.00,CLR,,0.00,WeatherDisplay:10.37,2013-07-22 15:10:00,
2013-07-22 08:20:00,73.2,59.9,30.13,ENE,68,0.0,1.0,63,0.00,CLR,,0.00,WeatherDisplay:10.37,2013-07-22 15:20:00,
2013-07-22 08:25:00,73.4,60.0,30.13,ENE,68,0.0,1.0,63,0.00,CLR,,0.00,WeatherDisplay:10.37,2013-07-22 15:25:00,
2013-07-22 08:30:00,73.8,59.9,30.13,ENE,68,0.0,0.0,62,0.00,CLR,,0.00,WeatherDisplay:10.37,2013-07-22 15:30:00,
2013-07-22 08:35:00,74.1,60.3,30.13,ENE,68,0.0,0.0,62,0.00,CLR,,0.00,WeatherDisplay:10.37,2013-07-22 15:35:00,
2013-07-22 08:40:00,74.1,60.3,30.13,ENE,68,0.0,0.0,62,0.00,CLR,,0.00,WeatherDisplay:10.37,2013-07-22 15:40:00,
2013-07-22 08:50:00,75.0,60.7,30.13,ENE,68,0.0,1.0,61,0.00,CLR,,0.00,WeatherDisplay:10.37,2013-07-22 15:50:00,
2013-07-22 09:00:00,75.6,59.7,30.13,ENE,68,0.0,0.0,58,0.00,CLR,,0.00,WeatherDisplay:10.37,2013-07-22 16:00:00,
2013-07-22 09:05:00,75.9,60.6,30.13,ENE,68,0.0,0.0,59,0.00,CLR,,0.00,WeatherDisplay:10.37,2013-07-22 16:05:00,
2013-07-22 09:10:00,76.2,60.8,30.13,ENE,68,0.0,0.0,59,0.00,CLR,,0.00,WeatherDisplay:10.37,2013-07-22 16:10:00,
2013-07-22 09:20:00,77.0,60.6,30.13,East,101,0.0,0.0,57,0.00,CLR,,0.00,WeatherDisplay:10.37,2013-07-22 16:20:00,
2013-07-22 09:30:00,77.7,60.8,30.13,ENE,74,0.0,1.0,56,0.00,CLR,,0.00,WeatherDisplay:10.37,2013-07-22 16:30:00,
2013-07-22 09:40:00,78.6,60.5,30.13,ENE,68,0.0,0.0,54,0.00,CLR,,0.00,WeatherDisplay:10.37,2013-07-22 16:40:00,
2013-07-22 09:50:00,78.9,60.9,30.13,ENE,62,0.0,0.0,54,0.00,CLR,,0.00,WeatherDisplay:10.37,2013-07-22 16:50:00,
2013-07-22 10:00:00,79.9,61.2,30.13,NE,45,0.0,6.0,53,0.00,CLR,,0.00,WeatherDisplay:10.37,2013-07-22 17:00:00,
2013-07-22 10:05:00,80.4,61.2,30.13,NE,45,0.0,0.0,52,0.00,CLR,,0.00,WeatherDisplay:10.37,2013-07-22 17:05:00,
2013-07-22 10:10:00,80.9,61.6,30.13,NE,39,1.0,2.0,52,0.00,CLR,,0.00,WeatherDisplay:10.37,2013-07-22 17:10:00,
2013-07-22 10:20:00,81.7,61.2,30.13,NE,45,0.0,0.0,50,0.00,CLR,,0.00,WeatherDisplay:10.37,2013-07-22 17:20:00,
2013-07-22 10:30:00,82.6,62.1,30.13,NE,45,0.0,0.0,50,0.00,CLR,,0.00,WeatherDisplay:10.37,2013-07-22 17:30:00,
2013-07-22 10:35:00,83.5,62.3,30.13,NE,45,0.0,0.0,49,0.00,CLR,,0.00,WeatherDisplay:10.37,2013-07-22 17:35:00,
2013-07-22 10:45:00,84.0,62.2,30.12,NE,45,0.0,0.0,48,0.00,CLR,,0.00,WeatherDisplay:10.37,2013-07-22 17:45:00,
2013-07-22 10:50:00,84.2,62.4,30.13,NE,45,0.0,0.0,48,0.00,CLR,,0.00,WeatherDisplay:10.37,2013-07-22 17:50:00,
2013-07-22 10:55:00,84.4,61.9,30.13,NE,45,0.0,0.0,47,0.00,CLR,,0.00,WeatherDisplay:10.37,2013-07-22 17:55:00,
2013-07-22 11:00:00,84.0,61.6,30.12,NE,45,0.0,0.0,47,0.00,CLR,,0.00,WeatherDisplay:10.37,2013-07-22 18:00:00,
2013-07-22 11:05:00,84.0,61.6,30.12,NE,45,0.0,0.0,47,0.00,CLR,,0.00,WeatherDisplay:10.37,2013-07-22 18:05:00,
2013-07-22 11:10:00,84.0,61.6,30.12,NE,45,0.0,0.0,47,0.00,CLR,,0.00,WeatherDisplay:10.37,2013-07-22 18:10:00,
2013-07-22 11:20:00,84.0,61.0,30.12,NE,45,0.0,0.0,46,0.00,CLR,,0.00,WeatherDisplay:10.37,2013-07-22 18:20:00,
2013-07-22 11:25:00,84.0,61.0,30.12,NE,45,0.0,0.0,46,0.00,CLR,,0.00,WeatherDisplay:10.37,2013-07-22 18:25:00,
2013-07-22 11:30:00,84.2,61.2,30.11,NE,45,0.0,0.0,46,0.00,CLR,,0.00,WeatherDisplay:10.37,2013-07-22 18:30:00,
2013-07-22 11:45:00,83.8,60.8,30.11,NNE,27,0.0,0.0,46,0.00,CLR,,0.00,WeatherDisplay:10.37,2013-07-22 18:45:00,
2013-07-22 11:50:00,83.8,60.8,30.12,NNE,22,0.0,0.0,46,0.00,CLR,,0.00,WeatherDisplay:10.37,2013-07-22 18:50:00,
2013-07-22 12:00:00,83.3,60.4,30.11,NNE,22,0.0,0.0,46,0.00,CLR,,0.00,WeatherDisplay:10.37,2013-07-22 19:00:00,
2013-07-22 12:05:00,83.3,60.4,30.11,NNE,22,0.0,0.0,46,0.00,CLR,,0.00,WeatherDisplay:10.37,2013-07-22 19:05:00,
2013-07-22 12:10:00,83.3,60.4,30.11,NNE,22,0.0,0.0,46,0.00,CLR,,0.00,WeatherDisplay:10.37,2013-07-22 19:10:00,
2013-07-22 12:15:00,83.1,60.8,30.11,NNE,22,0.0,0.0,47,0.00,CLR,,0.00,WeatherDisplay:10.37,2013-07-22 19:15:00,
2013-07-22 12:20:00,83.1,60.8,30.10,NNE,22,0.0,0.0,47,0.00,CLR,,0.00,WeatherDisplay:10.37,2013-07-22 19:20:00,
2013-07-22 12:30:00,83.5,61.1,30.10,NNE,12,0.0,0.0,47,0.00,CLR,,0.00,WeatherDisplay:10.37,2013-07-22 19:30:00,
2013-07-22 12:45:00,84.0,61.0,30.10,North,9,0.0,0.0,46,0.00,CLR,,0.00,WeatherDisplay:10.37,2013-07-22 19:45:00,
2013-07-22 12:50:00,84.0,61.0,30.10,NE,43,0.0,0.0,46,0.00,CLR,,0.00,WeatherDisplay:10.37,2013-07-22 19:50:00,
2013-07-22 12:55:00,84.5,61.5,30.09,WNW,283,0.0,0.0,46,0.00,CLR,,0.00,WeatherDisplay:10.37,2013-07-22 19:55:00,
2013-07-22 13:05:00,85.6,61.9,30.09,WSW,240,0.0,7.0,45,0.00,CLR,,0.00,WeatherDisplay:10.37,2013-07-22 20:05:00,
2013-07-22 13:10:00,86.3,61.8,30.09,WSW,251,0.0,1.0,44,0.00,CLR,,0.00,WeatherDisplay:10.37,2013-07-22 20:10:00,
2013-07-22 13:15:00,86.4,61.9,30.09,WNW,288,3.0,3.0,44,0.00,CLR,,0.00,WeatherDisplay:10.37,2013-07-22 20:15:00,
2013-07-22 13:20:00,86.2,61.7,30.08,WNW,286,0.0,0.0,44,0.00,CLR,,0.00,WeatherDisplay:10.37,2013-07-22 20:20:00,
2013-07-22 13:25:00,85.8,61.4,30.08,West,275,0.0,0.0,44,0.00,CLR,,0.00,WeatherDisplay:10.37,2013-07-22 20:25:00,
2013-07-22 13:30:00,85.8,61.4,30.08,West,281,0.0,7.0,44,0.00,CLR,,0.00,WeatherDisplay:10.37,2013-07-22 20:30:00,
2013-07-22 13:35:00,85.8,61.4,30.08,WSW,258,0.0,7.0,44,0.00,CLR,,0.00,WeatherDisplay:10.37,2013-07-22 20:35:00,
2013-07-22 13:40:00,85.8,61.4,30.08,WSW,249,0.0,0.0,44,0.00,CLR,,0.00,WeatherDisplay:10.37,2013-07-22 20:40:00,
2013-07-22 13:50:00,85.8,61.4,30.07,SW,229,0.0,0.0,44,0.00,CLR,,0.00,WeatherDisplay:10.37,2013-07-22 20:50:00,
2013-07-22 13:55:00,85.8,61.4,30.07,SW,234,0.0,0.0,44,0.00,CLR,,0.00,WeatherDisplay:10.37,2013-07-22 20:55:00,
2013-07-22 14:00:00,85.6,61.2,30.07,SW,233,0.0,0.0,44,0.00,CLR,,0.00,WeatherDisplay:10.37,2013-07-22 21:00:00,
2013-07-22 14:05:00,85.8,61.4,30.07,SW,236,0.0,0.0,44,0.00,CLR,,0.00,WeatherDisplay:10.37,2013-07-22 21:05:00,
2013-07-22 14:10:00,86.5,62.0,30.07,WSW,248,0.0,0.0,44,0.00,CLR,,0.00,WeatherDisplay:10.37,2013-07-22 21:10:00,
2013-07-22 14:20:00,87.5,62.2,30.07,WNW,284,0.0,8.0,43,0.00,CLR,,0.00,WeatherDisplay:10.37,2013-07-22 21:20:00,
2013-07-22 14:30:00,88.2,62.2,30.07,West,268,0.0,5.0,42,0.00,CLR,,0.00,WeatherDisplay:10.37,2013-07-22 21:30:00,
2013-07-22 14:40:00,87.3,61.4,30.07,SSW,207,0.0,2.0,42,0.00,CLR,,0.00,WeatherDisplay:10.37,2013-07-22 21:40:00,
2013-07-22 14:50:00,86.7,60.9,30.07,SSW,207,0.0,5.0,42,0.00,CLR,,0.00,WeatherDisplay:10.37,2013-07-22 21:50:00,
2013-07-22 15:00:00,86.2,60.4,30.07,SW,228,3.0,5.0,42,0.00,CLR,,0.00,WeatherDisplay:10.37,2013-07-22 22:00:00,
2013-07-22 15:05:00,85.8,60.1,30.06,SW,236,1.0,5.0,42,0.00,CLR,,0.00,WeatherDisplay:10.37,2013-07-22 22:05:00,
2013-07-22 15:10:00,85.8,60.1,30.06,WSW,250,0.0,6.0,42,0.00,CLR,,0.00,WeatherDisplay:10.37,2013-07-22 22:10:00,
2013-07-22 15:20:00,85.8,60.7,30.06,WSW,256,0.0,5.0,43,0.00,CLR,,0.00,WeatherDisplay:10.37,2013-07-22 22:20:00,
2013-07-22 15:30:00,84.7,60.4,30.06,WSW,240,1.0,1.0,44,0.00,CLR,,0.00,WeatherDisplay:10.37,2013-07-22 22:30:00,
2013-07-22 15:40:00,84.2,59.9,30.06,WSW,241,5.0,6.0,44,0.00,CLR,,0.00,WeatherDisplay:10.37,2013-07-22 22:40:00,
2013-07-22 15:45:00,84.0,60.4,30.06,West,271,10.0,13.0,45,0.00,CLR,,0.00,WeatherDisplay:10.37,2013-07-22 22:45:00,
2013-07-22 15:50:00,84.0,60.4,30.06,West,270,1.0,13.0,45,0.00,CLR,,0.00,WeatherDisplay:10.37,2013-07-22 22:50:00,
2013-07-22 16:00:00,83.8,60.2,30.06,West,262,0.0,5.0,45,0.00,CLR,,0.00,WeatherDisplay:10.37,2013-07-22 23:00:00,
2013-07-22 16:05:00,83.6,60.6,30.06,WNW,284,6.0,10.0,46,0.00,CLR,,0.00,WeatherDisplay:10.37,2013-07-22 23:05:00,
2013-07-22 16:10:00,83.2,60.2,30.06,NW,305,3.0,10.0,46,0.00,CLR,,0.00,WeatherDisplay:10.37,2013-07-22 23:10:00,
2013-07-22 16:20:00,82.2,61.2,30.07,WNW,284,1.0,7.0,49,0.00,CLR,,0.00,WeatherDisplay:10.37,2013-07-22 23:20:00,
2013-07-22 16:30:00,81.4,61.0,30.07,WNW,287,0.0,6.0,50,0.00,CLR,,0.00,WeatherDisplay:10.37,2013-07-22 23:30:00,
2013-07-22 16:35:00,80.8,60.4,30.07,West,263,10.0,12.0,50,0.00,CLR,,0.00,WeatherDisplay:10.37,2013-07-22 23:35:00,
2013-07-22 16:40:00,80.4,60.1,30.06,West,267,3.0,6.0,50,0.00,CLR,,0.00,WeatherDisplay:10.37,2013-07-22 23:40:00,
2013-07-22 16:50:00,79.9,60.1,30.06,SW,230,5.0,6.0,51,0.00,CLR,,0.00,WeatherDisplay:10.37,2013-07-22 23:50:00,
2013-07-22 17:00:00,79.5,60.4,30.06,SSW,212,0.0,8.0,52,0.00,CLR,,0.00,WeatherDisplay:10.37,2013-07-23 00:00:00,
2013-07-22 17:05:00,79.3,60.6,30.06,SSW,208,0.0,3.0,53,0.00,CLR,,0.00,WeatherDisplay:10.37,2013-07-23 00:05:00,
2013-07-22 17:10:00,79.0,60.4,30.07,SW,224,1.0,8.0,53,0.00,CLR,,0.00,WeatherDisplay:10.37,2013-07-23 00:10:00,
2013-07-22 17:15:00,78.6,60.1,30.07,SW,236,3.0,8.0,53,0.00,CLR,,0.00,WeatherDisplay:10.37,2013-07-23 00:15:00,
2013-07-22 17:20:00,78.6,60.1,30.07,SW,234,5.0,6.0,53,0.00,CLR,,0.00,WeatherDisplay:10.37,2013-07-23 00:20:00,
2013-07-22 17:30:00,78.3,60.2,30.06,WSW,253,0.0,7.0,54,0.00,CLR,,0.00,WeatherDisplay:10.37,2013-07-23 00:30:00,
2013-07-22 17:40:00,78.1,60.1,30.06,WSW,241,2.0,2.0,54,0.00,CLR,,0.00,WeatherDisplay:10.37,2013-07-23 00:40:00,
2013-07-22 17:45:00,78.1,60.1,30.06,WSW,245,6.0,6.0,54,0.00,CLR,,0.00,WeatherDisplay:10.37,2013-07-23 00:45:00,
2013-07-22 17:50:00,77.9,59.9,30.06,WSW,248,0.0,6.0,54,0.00,CLR,,0.00,WeatherDisplay:10.37,2013-07-23 00:50:00,
2013-07-22 18:00:00,77.7,59.7,30.06,SW,230,0.0,0.0,54,0.00,CLR,,0.00,WeatherDisplay:10.37,2013-07-23 01:00:00,
2013-07-22 18:10:00,77.4,59.9,30.06,WSW,241,5.0,7.0,55,0.00,CLR,,0.00,WeatherDisplay:10.37,2013-07-23 01:10:00,
2013-07-22 18:15:00,77.2,59.8,30.06,SW,226,3.0,7.0,55,0.00,CLR,,0.00,WeatherDisplay:10.37,2013-07-23 01:15:00,
2013-07-22 18:20:00,77.0,59.6,30.07,WSW,244,0.0,5.0,55,0.00,CLR,,0.00,WeatherDisplay:10.37,2013-07-23 01:20:00,
2013-07-22 18:30:00,76.8,59.4,30.07,WSW,253,0.0,5.0,55,0.00,CLR,,0.00,WeatherDisplay:10.37,2013-07-23 01:30:00,
2013-07-22 18:40:00,76.6,59.8,30.08,West,267,0.0,0.0,56,0.00,CLR,,0.00,WeatherDisplay:10.37,2013-07-23 01:40:00,
2013-07-22 18:50:00,76.5,60.1,30.08,SW,236,0.0,0.0,57,0.00,CLR,,0.00,WeatherDisplay:10.37,2013-07-23 01:50:00,
2013-07-22 19:00:00,76.1,60.2,30.08,WSW,247,1.0,7.0,58,0.00,CLR,,0.00,WeatherDisplay:10.37,2013-07-23 02:00:00,
2013-07-22 19:05:00,75.9,60.1,30.07,WSW,248,0.0,0.0,58,0.00,CLR,,0.00,WeatherDisplay:10.37,2013-07-23 02:05:00,
2013-07-22 19:10:00,75.7,59.9,30.08,WSW,237,3.0,6.0,58,0.00,CLR,,0.00,WeatherDisplay:10.37,2013-07-23 02:10:00,
2013-07-22 19:15:00,75.6,59.7,30.08,WSW,237,0.0,0.0,58,0.00,CLR,,0.00,WeatherDisplay:10.37,2013-07-23 02:15:00,
2013-07-22 19:20:00,75.4,60.1,30.08,WSW,248,0.0,0.0,59,0.00,CLR,,0.00,WeatherDisplay:10.37,2013-07-23 02:20:00,
2013-07-22 19:30:00,75.0,59.7,30.08,WSW,248,0.0,0.0,59,0.00,CLR,,0.00,WeatherDisplay:10.37,2013-07-23 02:30:00,
2013-07-22 19:40:00,75.0,59.7,30.08,WSW,252,2.0,6.0,59,0.00,CLR,,0.00,WeatherDisplay:10.37,2013-07-23 02:40:00,
2013-07-22 19:50:00,74.8,59.1,30.08,WSW,254,0.0,0.0,58,0.00,CLR,,0.00,WeatherDisplay:10.37,2013-07-23 02:50:00,
2013-07-22 20:00:00,74.5,58.7,30.08,West,266,0.0,0.0,58,0.00,CLR,,0.00,WeatherDisplay:10.37,2013-07-23 03:00:00,
2013-07-22 20:05:00,74.5,58.2,30.08,SW,226,0.0,0.0,57,0.00,CLR,,0.00,WeatherDisplay:10.37,2013-07-23 03:05:00,
2013-07-22 20:10:00,74.5,58.2,30.08,SW,230,0.0,0.0,57,0.00,CLR,,0.00,WeatherDisplay:10.37,2013-07-23 03:10:00,
2013-07-22 20:20:00,74.3,58.1,30.07,WSW,248,0.0,0.0,57,0.00,CLR,,0.00,WeatherDisplay:10.37,2013-07-23 03:20:00,
2013-07-22 20:25:00,74.1,58.4,30.08,WSW,248,0.0,0.0,58,0.00,CLR,,0.00,WeatherDisplay:10.37,2013-07-23 03:25:00,
2013-07-22 20:30:00,74.1,58.4,30.08,WSW,242,0.0,0.0,58,0.00,CLR,,0.00,WeatherDisplay:10.37,2013-07-23 03:30:00,
2013-07-22 20:35:00,74.1,58.4,30.08,SW,230,0.0,0.0,58,0.00,CLR,,0.00,WeatherDisplay:10.37,2013-07-23 03:35:00,
2013-07-22 20:40:00,73.9,58.7,30.08,SW,225,0.0,0.0,59,0.00,CLR,,0.00,WeatherDisplay:10.37,2013-07-23 03:40:00,
2013-07-22 20:50:00,73.6,58.4,30.08,SW,225,2.0,3.0,59,0.00,CLR,,0.00,WeatherDisplay:10.37,2013-07-23 03:50:00,
2013-07-22 21:00:00,73.6,58.8,30.09,SW,225,0.0,0.0,60,0.00,CLR,,0.00,WeatherDisplay:10.37,2013-07-23 04:00:00,
2013-07-22 21:05:00,73.4,59.1,30.09,WSW,238,1.0,2.0,61,0.00,CLR,,0.00,WeatherDisplay:10.37,2013-07-23 04:05:00,
2013-07-22 21:10:00,73.4,59.1,30.09,WSW,237,0.0,1.0,61,0.00,CLR,,0.00,WeatherDisplay:10.37,2013-07-23 04:10:00,
2013-07-22 21:20:00,73.2,59.4,30.10,WSW,248,0.0,0.0,62,0.00,CLR,,0.00,WeatherDisplay:10.37,2013-07-23 04:20:00,
2013-07-22 21:30:00,73.0,59.2,30.10,WSW,248,0.0,0.0,62,0.00,CLR,,0.00,WeatherDisplay:10.37,2013-07-23 04:30:00,
2013-07-22 21:35:00,73.0,59.2,30.10,WSW,248,0.0,0.0,62,0.00,CLR,,0.00,WeatherDisplay:10.37,2013-07-23 04:35:00,
2013-07-22 21:40:00,73.0,59.2,30.10,WSW,248,0.0,0.0,62,0.00,CLR,,0.00,WeatherDisplay:10.37,2013-07-23 04:40:00,
2013-07-22 21:45:00,72.8,59.1,30.10,WSW,248,0.0,0.0,62,0.00,CLR,,0.00,WeatherDisplay:10.37,2013-07-23 04:45:00,
2013-07-22 21:50:00,72.7,58.9,30.10,West,265,0.0,0.0,62,0.00,CLR,,0.00,WeatherDisplay:10.37,2013-07-23 04:50:00,
2013-07-22 22:00:00,72.7,58.9,30.11,WNW,292,8.0,8.0,62,0.00,CLR,,0.00,WeatherDisplay:10.37,2013-07-23 05:00:00,
2013-07-22 22:05:00,72.7,58.9,30.11,WNW,292,1.0,8.0,62,0.00,CLR,,0.00,WeatherDisplay:10.37,2013-07-23 05:05:00,
2013-07-22 22:10:00,72.5,58.7,30.11,WNW,292,0.0,0.0,62,0.00,CLR,,0.00,WeatherDisplay:10.37,2013-07-23 05:10:00,
2013-07-22 22:15:00,72.5,58.7,30.11,WNW,292,0.0,0.0,62,0.00,CLR,,0.00,WeatherDisplay:10.37,2013-07-23 05:15:00,
2013-07-22 22:20:00,72.5,58.7,30.11,WNW,292,0.0,0.0,62,0.00,CLR,,0.00,WeatherDisplay:10.37,2013-07-23 05:20:00,
2013-07-22 22:30:00,72.3,59.0,30.12,WNW,292,0.0,0.0,63,0.00,CLR,,0.00,WeatherDisplay:10.37,2013-07-23 05:30:00,
2013-07-22 22:40:00,72.3,59.0,30.12,WNW,292,0.0,0.0,63,0.00,CLR,,0.00,WeatherDisplay:10.37,2013-07-23 05:40:00,
2013-07-22 22:45:00,72.3,59.0,30.12,WNW,292,0.0,0.0,63,0.00,CLR,,0.00,WeatherDisplay:10.37,2013-07-23 05:45:00,
2013-07-22 22:50:00,72.3,59.0,30.12,WNW,292,0.0,0.0,63,0.00,CLR,,0.00,WeatherDisplay:10.37,2013-07-23 05:50:00,
2013-07-22 23:00:00,72.1,58.8,30.12,WNW,292,0.0,0.0,63,0.00,CLR,,0.00,WeatherDisplay:10.37,2013-07-23 06:00:00,
2013-07-22 23:05:00,72.1,58.8,30.11,WNW,292,0.0,0.0,63,0.00,CLR,,0.00,WeatherDisplay:10.37,2013-07-23 06:05:00,
2013-07-22 23:10:00,72.1,58.8,30.11,WNW,292,0.0,0.0,63,0.00,CLR,,0.00,WeatherDisplay:10.37,2013-07-23 06:10:00,
2013-07-22 23:15:00,72.1,58.8,30.11,WNW,292,0.0,0.0,63,0.00,CLR,,0.00,WeatherDisplay:10.37,2013-07-23 06:15:00,
2013-07-22 23:20:00,72.0,59.1,30.11,WNW,292,0.0,0.0,64,0.00,CLR,,0.00,WeatherDisplay:10.37,2013-07-23 06:20:00,
2013-07-22 23:30:00,72.0,59.1,30.12,WNW,292,0.0,0.0,64,0.00,CLR,,0.00,WeatherDisplay:10.37,2013-07-23 06:30:00,
2013-07-22 23:35:00,72.0,59.1,30.11,WNW,292,0.0,0.0,64,0.00,CLR,,0.00,WeatherDisplay:10.37,2013-07-23 06:35:00,
2013-07-22 23:40:00,71.8,58.9,30.12,WNW,292,0.0,0.0,64,0.00,CLR,,0.00,WeatherDisplay:10.37,2013-07-23 06:40:00,
2013-07-22 23:50:00,71.8,58.9,30.11,WNW,292,0.0,0.0,64,0.00,CLR,,0.00,WeatherDisplay:10.37,2013-07-23 06:50:00,
2013-07-22 23:55:00,71.8,58.9,30.11,WNW,292,0.0,0.0,64,0.00,CLR,,0.00,WeatherDisplay:10.37,2013-07-23 06:55:00,